Location: Peterborough
(44.3091°N, 78.3197°W)
Time: 03:29:12
(UTC-04:00)

Tiros 1 despin weight - Pass Details

Date: 22 March 2023
Orbit: 586 x 632 km, 48.2° (Epoch: 08 June)

Event Time Altitude Azimuth Distance (km) Brightness Sun altitude
Rises 01:59:52 0° 277° (W) 2,829 - -44.3°
Reaches altitude 10° 02:02:11 10° 282° (WNW) 1,934 - -44.2°
Maximum altitude 02:06:31 51° 359° (N) 767 - -44.0°
Drops below altitude 10° 02:10:55 10° 76° (ENE) 1,964 - -43.8°
Sets 02:13:18 0° 81° (E) 2,878 - -43.6°
